ROMMA est une association bénévole à but non lucratif. Votre soutien est indispensable : ADHERER à ROMMA ou FAIRE un DON

St-Christophe/Guiers - Berland - (38, Isère)

Massif de la Chartreuse (533 m)   Longitude: 05° 46' 44" E   Latitude: 45° 25' 43" N Station partenaire n°32
 

Détail journalier du     <<     >>

Température Precipitation Humidité Pression Vent Dir Rafale Dir. rafale Ensol.
Heure (°C) (mm) (%) (hPa) (km/h) (km/h) (min)
01:00 8.4092101106SO0
02:00 8.509210111---5SO0
03:00 8.3092101100---0
04:00 7.9094101102SO0
05:00 7.8095101100---0
06:00 7.709510111---10ONO0
07:00 7.409610112N8NNE0
08:00 7.209610111ONO6ONO0
09:00 6.909610111NE8SO0
10:00 7.00.29610111SSO6SSO0
11:00 7.009610121NO8NO0
12:00 7.709610121OSO5OSO0
13:00 8.109410123SSO8S0
14:00 8.609110125SO10SSO0
15:00 9.608910123SO8SSO0
16:00 10.208510124SO11OSO0
17:00 10.408310124SO8OSO0
18:00 10.408210122SSO6SO0
19:00 9.508610124ENE8ENE0
20:00 10.407610135ENE11NNO0
21:00 9.707410145ENE21ENE0
22:00 9.407510145ENE18E0
23:00 9.107510145E15ENE0
minuit 8.408010142NNO10ENE0

Graphique du 11-04-2019

 

Serveur OMMA